| time (UTC) | temp F | wind direction | speed MPH | gust MPH | rain 1hr in | rain 24hr in | rain mn in | humidity % | barometer mb |
| 20260906070603 | 0 | 0.0 | 2.0 | 0.00 | 0.00 | 0.00 | 1 | 1025.7 | |
| 20260906065557 | 0 | 0.0 | 0.0 | 0.00 | 0.00 | 0.00 | 1 | 1025.8 | |
| 20260906064532 | 0 | 0.0 | 0.0 | 0.00 | 0.00 | 0.00 | 1 | 1025.8 | |
| 20260906063527 | 0 | 270 | 0.0 | 2.0 | 0.00 | 0.00 | 0.00 | 1 | 1025.5 |
| 20260906062521 | 0 | 0.0 | 2.0 | 0.00 | 0.00 | 0.00 | 1 | 1025.3 | |
| 20260906061516 | 0 | 0.0 | 0.0 | 0.00 | 0.00 | 0.00 | 1 | 1025.3 | |
| 20260906060611 | 0 | 0.0 | 2.0 | 0.00 | 0.00 | 0.00 | 1 | 1025.3 | |
| 20260906055606 | 0 | 270 | 3.0 | 4.0 | 0.00 | 0.00 | 0.00 | 1 | 1025.2 |
| 20260906054559 | 0 | 270 | 1.0 | 2.0 | 0.00 | 0.00 | 0.00 | 1 | 1025.2 |
| 20260906053554 | 0 | 270 | 1.0 | 2.0 | 0.00 | 0.00 | 0.00 | 1 | 1025.2 |
| 20260906052550 | 0 | 270 | 1.0 | 4.0 | 0.00 | 0.00 | 0.00 | 1 | 1025.2 |
| 20260906051546 | 0 | 270 | 1.0 | 4.0 | 0.00 | 0.00 | 0.00 | 1 | 1025.2 |
| 20260906050539 | 0 | 270 | 0.0 | 2.0 | 0.00 | 0.00 | 0.00 | 1 | 1025.0 |
| 20260906045534 | 0 | 270 | 0.0 | 2.0 | 0.00 | 0.00 | 0.00 | 1 | 1025.0 |
| 20260906044529 | 0 | 270 | 0.0 | 2.0 | 0.00 | 0.00 | 0.00 | 1 | 1025.0 |
| 20260906043524 | 0 | 270 | 1.0 | 2.0 | 0.00 | 0.00 | 0.00 | 1 | 1025.0 |
| 20260906042518 | 0 | 270 | 1.0 | 4.0 | 0.00 | 0.00 | 0.00 | 1 | 1024.9 |
| 20260906041613 | 0 | 270 | 1.0 | 2.0 | 0.00 | 0.00 | 0.00 | 1 | 1024.9 |
| 20260906040628 | 0 | 270 | 1.0 | 4.0 | 0.00 | 0.00 | 0.00 | 1 | 1025.0 |
| 20260906035602 | 0 | 270 | 1.0 | 4.0 | 0.00 | 0.00 | 0.00 | 1 | 1025.1 |
| 20260906034557 | 0 | 0.0 | 0.0 | 0.00 | 0.00 | 0.00 | 1 | 1025.2 | |
| 20260906033553 | 0 | 270 | 1.0 | 2.0 | 0.00 | 0.00 | 0.00 | 1 | 1025.2 |
| 20260906032548 | 0 | 270 | 2.0 | 4.0 | 0.00 | 0.00 | 0.00 | 1 | 1025.1 |
| 20260906031543 | 0 | 270 | 4.0 | 9.0 | 0.00 | 0.00 | 0.00 | 1 | 1025.3 |
| 20260906030536 | 0 | 0.0 | 0.0 | 0.00 | 0.00 | 0.00 | 1 | 1025.4 | |
| 20260906025531 | 0 | 0.0 | 0.0 | 0.00 | 0.00 | 0.00 | 1 | 1025.3 | |
| 20260906024527 | 0 | 270 | 1.0 | 2.0 | 0.00 | 0.00 | 0.00 | 1 | 1025.4 |
| 20260906023522 | 0 | 270 | 1.0 | 4.0 | 0.00 | 0.00 | 0.00 | 1 | 1025.4 |
| 20260906022517 | 0 | 270 | 0.0 | 2.0 | 0.00 | 0.00 | 0.00 | 1 | 1025.4 |
| 20260906021612 | 0 | 270 | 0.0 | 2.0 | 0.00 | 0.00 | 0.00 | 1 | 1025.7 |
| 20260906020606 | 0 | 0.0 | 0.0 | 0.00 | 0.00 | 0.00 | 1 | 1025.8 | |
| 20260906015601 | 0 | 0.0 | 0.0 | 0.00 | 0.00 | 0.00 | 1 | 1025.8 | |
| 20260906014555 | 0 | 270 | 0.0 | 2.0 | 0.00 | 0.00 | 0.00 | 1 | 1025.8 |
| 20260906013550 | 0 | 270 | 1.0 | 4.0 | 0.00 | 0.00 | 0.00 | 1 | 1025.9 |
| 20260906012606 | 0 | 270 | 2.0 | 6.0 | 0.00 | 0.00 | 0.00 | 1 | 1025.9 |
| 20260906011540 | 0 | 270 | 1.0 | 4.0 | 0.00 | 0.00 | 0.00 | 1 | 1026.1 |
| 20260906010536 | 0 | 270 | 0.0 | 2.0 | 0.00 | 0.00 | 0.00 | 1 | 1025.9 |
| 20260906005529 | 0 | 270 | 1.0 | 4.0 | 0.00 | 0.00 | 0.00 | 1 | 1025.7 |
| 20260906004524 | 0 | 270 | 1.0 | 2.0 | 0.00 | 0.00 | 0.00 | 1 | 1025.9 |
| 20260906003519 | 0 | 270 | 1.0 | 4.0 | 0.00 | 0.00 | 0.00 | 1 | 1026.2 |
| 20260906002614 | 0 | 270 | 3.0 | 6.0 | 0.00 | 0.00 | 0.00 | 1 | 1026.6 |
| 20260906001610 | 0 | 270 | 2.0 | 4.0 | 0.00 | 0.00 | 0.00 | 1 | 1026.2 |
| 20260906000604 | 0 | 270 | 3.0 | 4.0 | 0.00 | 0.00 | 0.00 | 1 | 1026.6 |
| 20260905235559 | 0 | 270 | 4.0 | 4.0 | 0.00 | 0.00 | 0.00 | 1 | 1026.3 |
| 20260905234554 | 0 | 270 | 1.0 | 4.0 | 0.00 | 0.00 | 0.00 | 1 | 1026.7 |
| 20260905233548 | 0 | 270 | 0.0 | 2.0 | 0.00 | 0.00 | 0.00 | 1 | 1026.7 |
| 20260905232543 | 0 | 0.0 | 0.0 | 0.00 | 0.00 | 0.00 | 1 | 1026.7 | |
| 20260905231538 | 0 | 0.0 | 2.0 | 0.00 | 0.00 | 0.00 | 1 | 1026.7 | |
| 20260905230532 | 0 | 270 | 0.0 | 2.0 | 0.00 | 0.00 | 0.00 | 1 | 1026.8 |
| 20260905225527 | 0 | 270 | 0.0 | 2.0 | 0.00 | 0.00 | 0.00 | 1 | 1026.8 |
| 20260905224521 | 0 | 0.0 | 0.0 | 0.00 | 0.00 | 0.00 | 1 | 1026.8 | |
| 20260905223516 | 0 | 0.0 | 0.0 | 0.00 | 0.00 | 0.00 | 1 | 1026.6 | |
| 20260905222611 | 0 | 270 | 0.0 | 2.0 | 0.00 | 0.00 | 0.00 | 1 | 1026.9 |
| 20260905221606 | 0 | 270 | 1.0 | 2.0 | 0.00 | 0.00 | 0.00 | 1 | 1026.8 |
| 20260905220602 | 0 | 270 | 1.0 | 2.0 | 0.00 | 0.00 | 0.00 | 1 | 1026.8 |
| 20260905215556 | 0 | 270 | 0.0 | 2.0 | 0.00 | 0.00 | 0.00 | 1 | 1026.9 |
| 20260905214552 | 0 | 0.0 | 0.0 | 0.00 | 0.00 | 0.00 | 1 | 1026.7 | |
| 20260905213545 | 0 | 0.0 | 2.0 | 0.00 | 0.00 | 0.00 | 1 | 1026.5 | |
| 20260905212540 | 0 | 0.0 | 0.0 | 0.00 | 0.00 | 0.00 | 1 | 1026.6 | |
| 20260905211536 | 0 | 270 | 0.0 | 2.0 | 0.00 | 0.00 | 0.00 | 1 | 1026.6 |
| 20260905210530 | 0 | 270 | 2.0 | 4.0 | 0.00 | 0.00 | 0.00 | 1 | 1026.6 |
| 20260905205545 | 0 | 270 | 2.0 | 4.0 | 0.00 | 0.00 | 0.00 | 1 | 1026.6 |
| 20260905204520 | 0 | 270 | 0.0 | 2.0 | 0.00 | 0.00 | 0.00 | 1 | 1026.7 |
| 20260905203614 | 0 | 270 | 1.0 | 2.0 | 0.00 | 0.00 | 0.00 | 1 | 1026.7 |
| 20260905202609 | 0 | 270 | 1.0 | 2.0 | 0.00 | 0.00 | 0.00 | 1 | 1026.5 |
| 20260905201603 | 0 | 270 | 0.0 | 2.0 | 0.00 | 0.00 | 0.00 | 1 | 1026.5 |
| 20260905200558 | 0 | 270 | 1.0 | 2.0 | 0.00 | 0.00 | 0.00 | 1 | 1026.3 |
| 20260905195553 | 0 | 270 | 2.0 | 4.0 | 0.00 | 0.00 | 0.00 | 1 | 1026.4 |
| 20260905194607 | 0 | 270 | 1.0 | 2.0 | 0.00 | 0.00 | 0.00 | 1 | 1026.3 |
| 20260905193543 | 0 | 270 | 1.0 | 4.0 | 0.00 | 0.00 | 0.00 | 1 | 1026.1 |
| 20260905192537 | 0 | 270 | 3.0 | 4.0 | 0.00 | 0.00 | 0.00 | 1 | 1026.2 |
| 20260905191531 | 0 | 270 | 3.0 | 4.0 | 0.00 | 0.00 | 0.00 | 1 | 1026.2 |
| 20260905190607 | 0 | 270 | 2.0 | 4.0 | 0.00 | 0.00 | 0.00 | 1 | 1026.1 |
| 20260905185602 | 0 | 270 | 1.0 | 4.0 | 0.00 | 0.00 | 0.00 | 1 | 1026.1 |
| 20260905184537 | 0 | 270 | 1.0 | 4.0 | 0.00 | 0.00 | 0.00 | 1 | 1026.0 |
| 20260905183611 | 0 | 270 | 3.0 | 7.0 | 0.00 | 0.00 | 0.00 | 1 | 1025.9 |
| 20260905182606 | 0 | 270 | 4.0 | 11.0 | 0.00 | 0.00 | 0.00 | 1 | 1026.1 |
| 20260905181621 | 0 | 270 | 7.0 | 13.0 | 0.00 | 0.00 | 0.00 | 1 | 1026.0 |
| 20260905180557 | 0 | 270 | 9.0 | 16.0 | 0.00 | 0.00 | 0.00 | 1 | 1025.8 |
| 20260905175610 | 0 | 270 | 10.0 | 17.0 | 0.00 | 0.00 | 0.00 | 1 | 1025.5 |
| 20260905174606 | 0 | 270 | 18.0 | 31.0 | 0.00 | 0.00 | 0.00 | 1 | 1025.1 |
| 20260905173540 | 0 | 270 | 12.0 | 25.0 | 0.00 | 0.00 | 0.00 | 1 | 1026.0 |
| 20260905172535 | 0 | 270 | 10.0 | 24.0 | 0.00 | 0.00 | 0.00 | 1 | 1026.3 |
| 20260905171530 | 0 | 270 | 10.0 | 24.0 | 0.00 | 0.00 | 0.00 | 1 | 1026.2 |
| 20260905170525 | 0 | 270 | 10.0 | 16.0 | 0.00 | 0.00 | 0.00 | 1 | 1025.9 |
| 20260905165519 | 0 | 270 | 13.0 | 25.0 | 0.00 | 0.00 | 0.00 | 1 | 1025.9 |
| 20260905164614 | 0 | 267 | 11.0 | 25.0 | 0.00 | 0.00 | 0.00 | 1 | 1025.9 |
| 20260905163609 | 0 | 267 | 11.0 | 17.0 | 0.00 | 0.00 | 0.00 | 1 | 1025.5 |
| 20260905162604 | 0 | 270 | 12.0 | 21.0 | 0.00 | 0.00 | 0.00 | 1 | 1025.2 |
| 20260905161559 | 0 | 266 | 8.0 | 17.0 | 0.00 | 0.00 | 0.00 | 1 | 1025.2 |
| 20260905160553 | 0 | 266 | 8.0 | 17.0 | 0.00 | 0.00 | 0.00 | 1 | 1025.1 |
| 20260905155547 | 0 | 270 | 9.0 | 21.0 | 0.00 | 0.00 | 0.00 | 1 | 1025.1 |
| 20260905154544 | 0 | 252 | 11.0 | 18.0 | 0.00 | 0.00 | 0.00 | 1 | 1024.9 |
| 20260905153537 | 0 | 260 | 11.0 | 20.0 | 0.00 | 0.00 | 0.00 | 1 | 1024.8 |
| 20260905152532 | 0 | 243 | 8.0 | 21.0 | 0.00 | 0.00 | 0.00 | 1 | 1024.8 |
| 20260905151528 | 0 | 248 | 13.0 | 17.0 | 0.00 | 0.00 | 0.00 | 1 | 1024.9 |
| 20260905150522 | 0 | 252 | 9.0 | 15.0 | 0.00 | 0.00 | 0.00 | 1 | 1024.9 |
| 20260905145516 | 0 | 240 | 11.0 | 17.0 | 0.00 | 0.00 | 0.00 | 1 | 1024.9 |
| 20260905144611 | 0 | 248 | 12.0 | 27.0 | 0.00 | 0.00 | 0.00 | 1 | 1025.0 |
| 20260905143605 | 0 | 240 | 13.0 | 22.0 | 0.00 | 0.00 | 0.00 | 1 | 1024.9 |
| 20260905142620 | 0 | 245 | 11.0 | 16.0 | 0.00 | 0.00 | 0.00 | 1 | 1024.8 |
| 20260905141555 | 0 | 240 | 10.0 | 20.0 | 0.00 | 0.00 | 0.00 | 1 | 1024.7 |
| 20260905140610 | 0 | 232 | 13.0 | 27.0 | 0.00 | 0.00 | 0.00 | 1 | 1024.8 |
| 20260905135544 | 0 | 233 | 10.0 | 15.0 | 0.00 | 0.00 | 0.00 | 1 | 1025.0 |
| 20260905134540 | 0 | 235 | 13.0 | 24.0 | 0.00 | 0.00 | 0.00 | 1 | 1025.0 |
| 20260905133534 | 0 | 239 | 12.0 | 22.0 | 0.00 | 0.00 | 0.00 | 1 | 1024.9 |
| 20260905132529 | 0 | 229 | 10.0 | 15.0 | 0.00 | 0.00 | 0.00 | 1 | 1024.9 |
| 20260905131523 | 0 | 244 | 9.0 | 17.0 | 0.00 | 0.00 | 0.00 | 1 | 1024.9 |
| 20260905130518 | 0 | 235 | 11.0 | 16.0 | 0.00 | 0.00 | 0.00 | 1 | 1025.1 |
| 20260905125613 | 0 | 245 | 9.0 | 15.0 | 0.00 | 0.00 | 0.00 | 1 | 1025.1 |
| 20260905124608 | 0 | 236 | 11.0 | 18.0 | 0.00 | 0.00 | 0.00 | 1 | 1025.1 |
| 20260905123602 | 0 | 234 | 11.0 | 16.0 | 0.00 | 0.00 | 0.00 | 1 | 1025.0 |
| 20260905122557 | 0 | 232 | 9.0 | 13.0 | 0.00 | 0.00 | 0.00 | 1 | 1025.0 |
| 20260905121552 | 0 | 241 | 10.0 | 15.0 | 0.00 | 0.00 | 0.00 | 1 | 1025.1 |
| 20260905120547 | 0 | 248 | 9.0 | 14.0 | 0.00 | 0.00 | 0.00 | 1 | 1025.2 |
| 20260905115541 | 0 | 244 | 7.0 | 15.0 | 0.00 | 0.00 | 0.00 | 1 | 1025.2 |
| 20260905114536 | 0 | 223 | 6.0 | 11.0 | 0.00 | 0.00 | 0.00 | 1 | 1025.3 |
| 20260905113531 | 0 | 242 | 10.0 | 17.0 | 0.00 | 0.00 | 0.00 | 1 | 1025.3 |
| 20260905112525 | 0 | 228 | 8.0 | 13.0 | 0.00 | 0.00 | 0.00 | 1 | 1025.4 |
| 20260905111520 | 0 | 231 | 8.0 | 14.0 | 0.00 | 0.00 | 0.00 | 1 | 1025.5 |
| 20260905110615 | 0 | 248 | 9.0 | 14.0 | 0.00 | 0.00 | 0.00 | 1 | 1025.6 |
| 20260905105611 | 0 | 235 | 7.0 | 14.0 | 0.00 | 0.00 | 0.00 | 1 | 1025.5 |
| 20260905104604 | 0 | 240 | 9.0 | 14.0 | 0.00 | 0.00 | 0.00 | 1 | 1025.7 |
| 20260905103559 | 0 | 240 | 9.0 | 15.0 | 0.00 | 0.00 | 0.00 | 1 | 1025.5 |
| 20260905102554 | 0 | 239 | 6.0 | 14.0 | 0.00 | 0.00 | 0.00 | 1 | 1025.6 |
| 20260905101550 | 0 | 248 | 6.0 | 13.0 | 0.00 | 0.00 | 0.00 | 1 | 1025.6 |
| 20260905100545 | 0 | 250 | 7.0 | 14.0 | 0.00 | 0.00 | 0.00 | 1 | 1025.7 |
| 20260905095538 | 0 | 248 | 8.0 | 13.0 | 0.00 | 0.00 | 0.00 | 1 | 1025.7 |
| 20260905094533 | 0 | 253 | 3.0 | 14.0 | 0.00 | 0.00 | 0.00 | 1 | 1025.8 |
| 20260905093527 | 0 | 287 | 5.0 | 11.0 | 0.00 | 0.00 | 0.00 | 1 | 1025.7 |
| 20260905092522 | 0 | 290 | 3.0 | 8.0 | 0.00 | 0.00 | 0.00 | 1 | 1025.8 |
| 20260905091518 | 0 | 289 | 4.0 | 7.0 | 0.00 | 0.00 | 0.00 | 1 | 1025.6 |
| 20260905090614 | 0 | 270 | 4.0 | 8.0 | 0.00 | 0.00 | 0.00 | 1 | 1025.7 |
| 20260905085607 | 0 | 270 | 6.0 | 9.0 | 0.00 | 0.00 | 0.00 | 1 | 1025.6 |
| 20260905084604 | 0 | 270 | 6.0 | 9.0 | 0.00 | 0.00 | 0.00 | 1 | 1025.6 |
| 20260905083558 | 0 | 270 | 6.0 | 11.0 | 0.00 | 0.00 | 0.00 | 1 | 1025.7 |
| 20260905082551 | 0 | 270 | 4.0 | 7.0 | 0.00 | 0.00 | 0.00 | 1 | 1025.8 |
| 20260905081546 | 0 | 270 | 5.0 | 8.0 | 0.00 | 0.00 | 0.00 | 1 | 1025.6 |
| 20260905080541 | 0 | 270 | 6.0 | 9.0 | 0.00 | 0.00 | 0.00 | 1 | 1025.6 |
| 20260905075536 | 0 | 270 | 7.0 | 11.0 | 0.00 | 0.00 | 0.00 | 1 | 1025.6 |
| 20260905074530 | 0 | 270 | 9.0 | 13.0 | 0.00 | 0.00 | 0.00 | 1 | 1025.6 |
| 20260905073525 | 0 | 270 | 7.0 | 11.0 | 0.00 | 0.00 | 0.00 | 1 | 1025.7 |
| 20260905072519 | 0 | 270 | 7.0 | 9.0 | 0.00 | 0.00 | 0.00 | 1 | 1025.5 |
| 20260905071615 | 0 | 270 | 6.0 | 11.0 | 0.00 | 0.00 | 0.00 | 1 | 1025.6 |